This is the latest recevied weather packets stored in our database for station/object VA3BOO. If no packets are shown the sender has not sent any weather packets the latest 10 day(s).
| Time | Temp. | Humidity | Pressure | Rain* | Wind** | Luminosity | Snow |
|---|---|---|---|---|---|---|---|
| 1777935904 | 16.11° C | 56% | 1002.1 hPa | 0 mm | - | 28 W/m² | - |
| 1777935604 | 16.67° C | 55% | 1002.2 hPa | 0 mm | - | 29 W/m² | - |
| 1777935304 | 16.67° C | 54% | 1002.3 hPa | 0 mm | - | 38 W/m² | - |
| 1777935004 | 16.67° C | 54% | 1002.2 hPa | 0 mm | - | 46 W/m² | - |
| 1777934704 | 16.67° C | 53% | 1002.3 hPa | 0 mm | - | 53 W/m² | - |
| 1777934404 | 17.22° C | 52% | 1002.4 hPa | 0 mm | - | 61 W/m² | - |
| 1777934104 | 17.22° C | 51% | 1002.4 hPa | 0 mm | - | 66 W/m² | - |
| 1777933804 | 17.22° C | 50% | 1002.4 hPa | 0 mm | - | 71 W/m² | - |
| 1777933504 | 17.78° C | 50% | 1002.4 hPa | 0 mm | - | 71 W/m² | - |
| 1777933204 | 17.78° C | 49% | 1002.4 hPa | 0 mm | - | 69 W/m² | - |
| 1777932904 | 18.89° C | 46% | 1002.5 hPa | 0 mm | - | 77 W/m² | - |
| 1777932604 | 18.89° C | 45% | 1002.4 hPa | 0 mm | - | 114 W/m² | - |
| 1777932304 | 19.44° C | 46% | 1002.5 hPa | 0 mm | - | 186 W/m² | - |
| 1777932004 | 19.44° C | 44% | 1002.6 hPa | 0 mm | - | 199 W/m² | - |
| 1777931704 | 19.44° C | 45% | 1002.5 hPa | 0 mm | - | 216 W/m² | - |
| 1777931404 | 18.89° C | 44% | 1002.7 hPa | 0 mm | - | 242 W/m² | - |
| 1777931104 | 18.89° C | 46% | 1002.7 hPa | 0 mm | - | 266 W/m² | - |
| 1777930804 | 18.33° C | 45% | 1002.8 hPa | 0 mm | - | 239 W/m² | - |
| 1777930504 | 18.33° C | 47% | 1002.8 hPa | 0 mm | - | 285 W/m² | - |
| 1777930204 | 18.33° C | 46% | 1002.8 hPa | 0 mm | - | 295 W/m² | - |
| 1777929904 | 18.89° C | 45% | 1002.8 hPa | 0 mm | - | 299 W/m² | - |
| 1777929604 | 18.89° C | 46% | 1002.8 hPa | 0 mm | - | 291 W/m² | - |
| 1777929304 | 18.89° C | 45% | 1002.7 hPa | 0 mm | - | 334 W/m² | - |
| 1777929004 | 18.89° C | 45% | 1002.9 hPa | 0 mm | - | 358 W/m² | - |
| 1777928704 | 18.33° C | 46% | 1002.8 hPa | 0 mm | - | 378 W/m² | - |
* Rain latest hour (hover to see other rain measurements)
** Current wind speed in m/s (hover to see current wind gust speed)